When you browse on this site, cookies collect data to enhance your experience and personalize the content and advertising you see.
Visit our Privacy Policy to learn more. By continuing to use the site, you agree to this use of cookies and data.
  • In Schweiz
  • Länderverzeichnis
  • Für 7 Tage
  • Wassertemperatur
  • Satellitenkarten
  • Wetterkarte
  • Widgets
  • user-avatar
    Anmelden

    Stündliche Wetter Saidpur

    Heute, 16 Juni, Sonntag

    Zeit Temperatur Niederschläge Wind Luftdruck Luftfeuchtigkeit
    00:00 +33°C° 0 mm 5 m/S 746 mmHg 80%
    01:00 +32°C° 0.2 mm 4 m/S 746 mmHg 82%
    02:00 +32°C° 0.2 mm 4 m/S 745 mmHg 84%
    03:00 +32°C° 0.2 mm 4 m/S 744 mmHg 86%
    04:00 +32°C° 0 mm 4 m/S 745 mmHg 86%
    05:00 +32°C° 0 mm 4 m/S 745 mmHg 86%
    06:00 +32°C° 0 mm 4 m/S 745 mmHg 86%
    07:00 +33°C° 0 mm 4 m/S 745 mmHg 79%
    08:00 +35°C° 0 mm 4 m/S 746 mmHg 71%
    09:00 +36°C° 0 mm 4 m/S 746 mmHg 64%
    10:00 +38°C° 0 mm 3 m/S 746 mmHg 55%
    11:00 +40°C° 0 mm 3 m/S 746 mmHg 46%
    12:00 +42°C° 0 mm 2 m/S 746 mmHg 37%
    13:00 +44°C° 0 mm 3 m/S 745 mmHg 35%
    14:00 +44°C° 0 mm 3 m/S 744 mmHg 32%
    15:00 +45°C° 0 mm 3 m/S 743 mmHg 30%
    16:00 +44°C° 0 mm 4 m/S 743 mmHg 33%
    17:00 +43°C° 0 mm 4 m/S 742 mmHg 37%
    18:00 +42°C° 0 mm 4 m/S 742 mmHg 41%
    19:00 +40°C° 0 mm 5 m/S 743 mmHg 50%
    20:00 +37°C° 0 mm 5 m/S 743 mmHg 59%
    21:00 +36°C° 0 mm 6 m/S 744 mmHg 68%
    22:00 +36°C° 0 mm 6 m/S 745 mmHg 66%
    23:00 +36°C° 0 mm 6 m/S 745 mmHg 63%

    Morgen, 17 Juni, Montag

    Zeit Temperatur Niederschläge Wind Luftdruck Luftfeuchtigkeit
    00:00 +36°C° 0 mm 6 m/S 745 mmHg 60%
    01:00 +35°C° 0 mm 5 m/S 745 mmHg 63%
    02:00 +34°C° 0 mm 5 m/S 744 mmHg 66%
    03:00 +34°C° 0 mm 4 m/S 744 mmHg 68%
    04:00 +33°C° 0 mm 5 m/S 744 mmHg 70%
    05:00 +33°C° 0 mm 5 m/S 745 mmHg 72%
    06:00 +33°C° 0 mm 5 m/S 745 mmHg 74%
    07:00 +34°C° 0 mm 6 m/S 745 mmHg 70%
    08:00 +35°C° 0 mm 6 m/S 745 mmHg 67%
    09:00 +36°C° 0 mm 6 m/S 746 mmHg 64%
    10:00 +38°C° 0 mm 6 m/S 746 mmHg 60%
    11:00 +39°C° 0 mm 6 m/S 745 mmHg 56%
    12:00 +40°C° 0 mm 5 m/S 745 mmHg 53%
    13:00 +41°C° 0 mm 4 m/S 745 mmHg 49%
    14:00 +42°C° 0 mm 4 m/S 744 mmHg 46%
    15:00 +43°C° 0 mm 3 m/S 743 mmHg 43%
    16:00 +42°C° 0 mm 4 m/S 743 mmHg 45%
    17:00 +42°C° 0 mm 4 m/S 743 mmHg 47%
    18:00 +41°C° 0 mm 5 m/S 742 mmHg 49%
    19:00 +39°C° 0.1 mm 5 m/S 743 mmHg 58%
    20:00 +38°C° 0.1 mm 6 m/S 744 mmHg 67%
    21:00 +35°C° 0.1 mm 7 m/S 744 mmHg 75%
    22:00 +34°C° 0 mm 6 m/S 744 mmHg 76%
    23:00 +34°C° 0 mm 6 m/S 745 mmHg 76%

    übermorgen, 18 Juni, Dienstag

    Zeit Temperatur Niederschläge Wind Luftdruck Luftfeuchtigkeit
    00:00 +34°C° 0 mm 6 m/S 745 mmHg 76%
    01:00 +34°C° 0 mm 5 m/S 744 mmHg 74%
    02:00 +34°C° 0 mm 5 m/S 744 mmHg 72%
    03:00 +34°C° 0 mm 5 m/S 744 mmHg 70%
    04:00 +34°C° 0 mm 5 m/S 744 mmHg 73%
    05:00 +33°C° 0 mm 5 m/S 745 mmHg 76%
    06:00 +33°C° 0 mm 6 m/S 745 mmHg 79%
    07:00 +34°C° 0 mm 6 m/S 745 mmHg 74%
    08:00 +35°C° 0 mm 6 m/S 746 mmHg 69%
    09:00 +38°C° 0 mm 6 m/S 746 mmHg 64%
    10:00 +39°C° 0 mm 6 m/S 746 mmHg 59%
    11:00 +40°C° 0 mm 5 m/S 746 mmHg 54%
    12:00 +42°C° 0 mm 5 m/S 745 mmHg 49%
    13:00 +42°C° 0 mm 5 m/S 745 mmHg 46%
    14:00 +43°C° 0 mm 4 m/S 744 mmHg 43%
    15:00 +44°C° 0 mm 3 m/S 743 mmHg 39%
    16:00 +43°C° 0 mm 4 m/S 743 mmHg 42%
    17:00 +42°C° 0 mm 4 m/S 743 mmHg 45%
    18:00 +41°C° 0 mm 5 m/S 743 mmHg 48%
    19:00 +40°C° 1.1 mm 5 m/S 743 mmHg 57%
    20:00 +37°C° 1.1 mm 4 m/S 744 mmHg 65%
    21:00 +35°C° 1.1 mm 4 m/S 745 mmHg 74%
    22:00 +34°C° 1.1 mm 5 m/S 745 mmHg 77%
    23:00 +34°C° 1.1 mm 5 m/S 745 mmHg 80%

    19 Juni, Mittwoch

    Zeit Temperatur Niederschläge Wind Luftdruck Luftfeuchtigkeit
    00:00 +33°C° 1.1 mm 6 m/S 745 mmHg 83%
    01:00 +33°C° 0.1 mm 5 m/S 745 mmHg 82%
    02:00 +33°C° 0.1 mm 4 m/S 745 mmHg 82%
    03:00 +33°C° 0.1 mm 3 m/S 744 mmHg 82%
    04:00 +32°C° 0.3 mm 4 m/S 744 mmHg 83%
    05:00 +32°C° 0.3 mm 4 m/S 745 mmHg 84%
    06:00 +32°C° 0.3 mm 5 m/S 745 mmHg 86%
    07:00 +33°C° 0 mm 5 m/S 745 mmHg 80%
    08:00 +34°C° 0 mm 5 m/S 746 mmHg 75%
    09:00 +36°C° 0 mm 5 m/S 747 mmHg 69%
    10:00 +37°C° 0 mm 5 m/S 746 mmHg 65%
    11:00 +37°C° 0 mm 5 m/S 746 mmHg 61%
    12:00 +38°C° 0 mm 4 m/S 746 mmHg 57%
    13:00 +40°C° 0 mm 4 m/S 745 mmHg 53%
    14:00 +40°C° 0 mm 3 m/S 744 mmHg 49%
    15:00 +42°C° 0 mm 3 m/S 743 mmHg 45%
    16:00 +41°C° 0.5 mm 4 m/S 743 mmHg 51%
    17:00 +38°C° 0.5 mm 4 m/S 743 mmHg 57%
    18:00 +37°C° 0.5 mm 5 m/S 743 mmHg 62%
    19:00 +35°C° 3.5 mm 6 m/S 744 mmHg 62%
    20:00 +34°C° 3.5 mm 7 m/S 745 mmHg 61%
    21:00 +32°C° 3.5 mm 8 m/S 745 mmHg 61%
    22:00 +32°C° 0 mm 6 m/S 745 mmHg 63%
    23:00 +32°C° 0 mm 4 m/S 745 mmHg 66%

    20 Juni, Donnerstag

    Zeit Temperatur Niederschläge Wind Luftdruck Luftfeuchtigkeit
    00:00 +31°C° 0 mm 3 m/S 745 mmHg 68%
    01:00 +31°C° 0 mm 2 m/S 745 mmHg 70%
    02:00 +31°C° 0 mm 1 m/S 745 mmHg 72%
    03:00 +31°C° 0 mm 1 m/S 745 mmHg 74%
    04:00 +31°C° 0 mm 1 m/S 745 mmHg 74%
    05:00 +31°C° 0 mm 1 m/S 745 mmHg 75%
    06:00 +31°C° 0 mm 1 m/S 745 mmHg 76%
    07:00 +32°C° 0 mm 1 m/S 746 mmHg 69%
    08:00 +34°C° 0 mm 1 m/S 746 mmHg 63%
    09:00 +35°C° 0 mm 1 m/S 746 mmHg 57%
    10:00 +37°C° 0 mm 1 m/S 746 mmHg 51%
    11:00 +39°C° 0 mm 1 m/S 746 mmHg 46%
    12:00 +41°C° 0 mm 1 m/S 745 mmHg 41%
    13:00 +41°C° 0 mm 2 m/S 745 mmHg 39%
    14:00 +42°C° 0 mm 2 m/S 744 mmHg 38%
    15:00 +42°C° 0 mm 2 m/S 743 mmHg 36%
    16:00 +42°C° 0 mm 2 m/S 743 mmHg 37%
    17:00 +41°C° 0 mm 1 m/S 743 mmHg 38%
    18:00 +41°C° 0 mm 1 m/S 743 mmHg 40%
    19:00 +40°C° 0 mm 2 m/S 743 mmHg 45%
    20:00 +38°C° 0 mm 2 m/S 744 mmHg 50%
    21:00 +37°C° 0 mm 3 m/S 744 mmHg 56%
    22:00 +36°C° 0.1 mm 3 m/S 744 mmHg 59%
    23:00 +36°C° 0.1 mm 3 m/S 744 mmHg 62%

    21 Juni, Freitag

    Zeit Temperatur Niederschläge Wind Luftdruck Luftfeuchtigkeit
    00:00 +35°C° 0.1 mm 3 m/S 745 mmHg 65%
    01:00 +35°C° 0.3 mm 3 m/S 744 mmHg 68%
    02:00 +34°C° 0.3 mm 3 m/S 744 mmHg 71%
    03:00 +34°C° 0.3 mm 3 m/S 744 mmHg 74%
    04:00 +33°C° 0 mm 3 m/S 744 mmHg 74%
    05:00 +33°C° 0 mm 3 m/S 744 mmHg 74%
    06:00 +33°C° 0 mm 3 m/S 744 mmHg 75%
    07:00 +35°C° 0 mm 3 m/S 745 mmHg 69%
    08:00 +36°C° 0 mm 3 m/S 745 mmHg 64%
    09:00 +37°C° 0 mm 3 m/S 746 mmHg 58%
    10:00 +40°C° 0 mm 4 m/S 746 mmHg 54%
    11:00 +41°C° 0 mm 4 m/S 745 mmHg 49%
    12:00 +42°C° 0 mm 4 m/S 745 mmHg 44%
    13:00 +42°C° 0 mm 4 m/S 744 mmHg 44%
    14:00 +42°C° 0 mm 3 m/S 744 mmHg 44%
    15:00 +42°C° 0 mm 3 m/S 743 mmHg 44%
    16:00 +42°C° 0.1 mm 3 m/S 743 mmHg 46%
    17:00 +40°C° 0.1 mm 3 m/S 743 mmHg 48%
    18:00 +39°C° 0.1 mm 3 m/S 742 mmHg 50%
    19:00 +38°C° 0.4 mm 3 m/S 743 mmHg 55%
    20:00 +37°C° 0.4 mm 3 m/S 744 mmHg 60%
    21:00 +36°C° 0.4 mm 4 m/S 744 mmHg 65%
    22:00 +35°C° 1.2 mm 3 m/S 744 mmHg 68%
    23:00 +34°C° 1.2 mm 3 m/S 744 mmHg 70%
    Mehr zeigen